Regional Weather Roundup
Issued by NWS

Home | Current Version | Previous Version | Text Only | Print | Product List | Glossary On
Versions: 1 2 3 4 5 6 7 8 9 10 11 12 13 14 15 16 17 18 19 20 21 22 23 24 25 26 27 28
000
ASUS45 KSLC 260610
RWRUT

UTAH REGIONAL WEATHER ROUNDUP
NATIONAL WEATHER SERVICE SALT LAKE CITY UT
1200 AM MDT SUN OCT 26 2014

UTZ001>011-023>025-260700-

NORTHERN UTAH

CITY           SKY/WX    TMP DP  RH WIND       PRES   REMARKS
BRIGHAM CITY   PTCLDY    66  37  35 S15G21    29.88S
HILL AFB       PTCLDY    66  39  36 S24G33    29.91F
LOGAN          CLEAR     68  38  33 S20G35    29.86R
OGDEN          PTCLDY    68  39  34 S21G32    29.89S
PROVO AIRPORT  PTCLDY    63  39  42 SE13      29.99S
SALT LAKE CITY PTCLDY    68  39  34 S16G28    29.91R
VERNAL         PTCLDY    46  35  65 W6        30.00F
WENDOVER       PTCLDY    63  32  31 W16       29.92R
HEBER CITY     PTCLDY    63  36  36 SW22G33   30.01R
WEST JORDAN    CLEAR     66  46  48 S18G26    29.94F

$$

UTZ012>022-026-027-260700-

SOUTHERN/CENTRAL UTAH

CITY           SKY/WX    TMP DP  RH WIND       PRES   REMARKS
BLANDING       PTCLDY    53  32  45 CALM      30.22S
BRYCE CANYON   PTCLDY    49  37  63 S9        30.22F
CEDAR CITY     CLEAR     62  40  44 S22G36    30.07S
DELTA          CLEAR     60  40  48 S10       30.01S
HANKSVILLE       N/A     68  36  30 S3        30.03S
MILFORD        CLEAR     57  40  52 S9        30.03R
MOAB/CYNLANDS  CLEAR     62  33  33 CALM      30.00F
PRICE          PTCLDY    54  31  41 NE12      30.06F
ST GEORGE      PTCLDY    68  39  34 S9        29.99F
KANAB            N/A     48  37  66 CALM      30.14S

$$

REGIONAL REPORTS     COLORADO/ARIZONA

CITY           SKY/WX    TMP DP  RH WIND       PRES   REMARKS
CRAIG, CO      PTCLDY    40  30  67 SE5       30.09S
GRAND JUNCTION CLOUDY    60  33  36 SE9       30.04F
RIFLE          PTCLDY    48  33  56 E6        30.08F
MONTROSE       PTCLDY    52  34  50 S6        30.15F
CORTEZ         PTCLDY    46  36  68 NE3       30.18F
PAGE, AZ       CLEAR     66  39  37 SW5       30.06R
GRAND CANYON   PTCLDY    43  37  79 CALM      30.23F
KINGMAN        CLEAR     61  45  55 SW9       30.05S
FLAGSTAFF      CLEAR     44  38  79 CALM      30.26F

$$

REGIONAL REPORTS    NEVADA/IDAHO/WYOMING

CITY           SKY/WX    TMP DP  RH WIND       PRES   REMARKS
LAS VEGAS, NV  MOCLDY    75  40  28 S12       29.91S
ELY            CLEAR     52  31  44 S12       30.05R
ELKO           CLOUDY    51  29  42 W5        30.02R
POCATELLO, ID  LGT RAIN  58  37  45 W18G41    29.92R
BURLEY         CLOUDY    57  34  41 W7        29.92R
EVANSTON, WY   PTCLDY    53  34  48 SW21      30.03R
ROCK SPRINGS   MOCLDY    53  30  41 S9        30.01R
KEMMERER       PTCLDY    50  32  50 SW17      30.02F

$$



USA.gov is the U.S. government's official web portal to all federal, state and local government web resources and services.